Location: Santa Cristina
(46.5667°N, 11.7167°E)
Time: 04:29:53
(UTC+00:00)

Cosmos 2344 - Pass Details

Date: 21 April 2021
Orbit: 1241 x 3002 km, 63.3° (Epoch: 10 May)

Event Time Altitude Azimuth Distance (km) Brightness Sun altitude
Rises 03:05:32 0° 319° (NW) 4,547 6.4 -11.7°
Reaches altitude 10° 03:08:07 10° 320° (NW) 3,703 5.9 -11.3°
Maximum altitude 03:17:27 88° 233° (SW) 1,895 4.4 -9.9°
Drops below altitude 10° 03:30:35 10° 146° (SE) 5,067 6.8 -7.9°
Sets 03:34:47 0° 146° (SE) 6,295 7.3 -7.3°
